[[{"header":{"parameterUnit":"m.s-1","parameterCategory":1,"la1":30.2991,"la2":30.254,"lo1":-89.0895,"lo2":-89.0444,"dy":0.0017,"dx":0.0017,"nx":28,"ny":28,"refTime":"2023-09-06T09:00:00:Z","depth":0,"parameterNumber":2,"parameterNumberName":"U-component_of_WINDS"},"data":[0,0,0,0,0,0,0,0,0,0,0,0,0,0,0,0,0,0,0,0,0,0,0,0,0,0,0,0,0,0,0,0,0,0,0,0,0,0,0,0,0,0,0,0,0,0,0,0,0,0,0,0,0,0,0,0,0,0,1.2216,1.2216,0,1.2265,1.2265,1.2266,1.227,1.2269,1.2269,1.2268,1.2317,1.2318,1.232,0,0,0,0,0,0,0,0,0,0,0,0,0,1.2123,1.2124,1.2216,1.2217,1.2217,1.2265,1.2265,1.2266,1.227,1.2269,1.2268,1.2268,1.2316,1.2318,1.232,0,0,0,0,0,0,0,0,0,0,0,0,0,1.2167,1.2125,1.2216,1.2225,1.2226,1.2265,1.2265,1.2266,1.227,1.2269,1.2268,1.2267,1.2315,1.2318,1.2321,1.2353,0,0,1.2329,1.233,0,0,0,0,0,0,0,0,1.2164,1.217,1.2223,1.2224,1.2226,1.226,1.225,1.2295,1.227,1.2253,1.2268,1.2267,1.2298,1.2302,1.2313,1.2355,1.2357,1.2329,1.2331,1.2332,1.2333,0,0,0,0,0,0,0,1.2161,1.2168,1.2235,1.2224,1.2225,1.2225,1.2231,1.2259,1.228,1.2255,1.2255,1.2261,1.2299,1.2311,1.2314,1.2358,1.2329,1.2331,1.2333,1.2334,1.2427,1.2428,0,0,0,0,0,0,1.2157,1.2165,1.2234,1.2237,1.2192,1.2228,1.2234,1.225,1.2279,1.2283,1.2261,1.2261,1.2307,1.2311,1.2316,1.2355,1.2332,1.2334,1.2336,1.2426,1.2427,1.2428,0,0,0,0,0,0,1.2155,1.2163,1.2232,1.2201,1.221,1.223,1.2248,1.2251,1.2263,1.2285,1.2288,1.227,1.2306,1.2312,1.2343,1.2356,1.2335,1.2338,1.2425,1.2427,1.2428,1.2433,0,0,0,0,0,0,1.2152,1.2162,1.2175,1.2201,1.2212,1.2259,1.2249,1.2253,1.2268,1.2268,1.2293,1.2297,1.2306,1.2339,1.2346,1.236,1.234,1.2424,1.2426,1.2427,1.2431,1.2434,1.2436,0,0,0,0,0,1.2149,1.2175,1.2176,1.2184,1.2229,1.226,1.2265,1.2276,1.2269,1.2282,1.2295,1.2296,1.2354,1.2343,1.235,1.2365,1.2423,1.2425,1.2427,1.243,1.2433,1.2436,0,0,0,0,0,0,1.215,1.2179,1.218,1.2216,1.2235,1.226,1.2277,1.2279,1.2301,1.23,1.2311,1.2317,1.2347,1.2359,1.2346,1.2397,1.2388,1.2391,1.2388,1.2391,1.2393,1.2389,1.2342,0,0,0,0,0,1.2154,1.2178,1.2201,1.223,1.224,1.2257,1.2271,1.2277,1.2298,1.2306,1.2322,1.2341,1.2363,1.2378,1.24,1.2433,1.2438,1.2447,1.2449,1.2451,1.2454,1.247,1.2474,1.2435,1.2435,1.2435,0,0,1.2163,1.2182,1.2196,1.2231,1.2247,1.227,1.2264,1.2289,1.2305,1.231,1.2339,1.2352,1.2374,1.2406,1.2421,1.2417,1.2466,1.2454,1.2455,1.2457,1.2473,1.2476,1.248,1.2436,1.2436,1.2435,0,0,1.2191,1.2209,1.2234,1.225,1.2274,1.2285,1.2291,1.2315,1.2323,1.2354,1.2357,1.2376,1.2415,1.243,1.2443,1.2476,1.2476,1.2482,1.2494,1.251,1.2513,1.2516,1.2526,1.253,1.2485,1.2485,1.2485,0,1.22,1.2235,1.2247,1.2271,1.2285,1.229,1.2315,1.233,1.2359,1.2369,1.2364,1.2412,1.2428,1.2462,1.247,1.2481,1.2486,1.2479,1.2512,1.2515,1.2518,1.2527,1.2531,1.2486,1.2486,1.2486,1.2485,0,1.2243,1.2267,1.2285,1.2313,1.233,1.2354,1.2368,1.2383,1.2388,1.2399,1.2429,1.2447,1.2472,1.2481,1.2486,1.2516,1.2512,1.251,1.2501,1.2522,1.2531,1.2535,1.2486,1.2486,1.2486,1.2486,0,0,1.2273,1.2307,1.2313,1.2325,1.2352,1.237,1.2394,1.2419,1.2431,1.2451,1.247,1.2502,1.25,1.2514,1.2521,1.2535,1.2557,1.2531,1.2531,1.2534,1.2589,1.259,1.2594,1.2558,1.2559,1.256,1.2587,0,1.2303,1.2346,1.2357,1.2393,1.2415,1.2419,1.244,1.2457,1.2468,1.2487,1.2498,1.252,1.2516,1.2525,1.2539,1.2552,1.2568,1.255,1.2575,1.2576,1.2568,1.2599,1.26,1.2625,1.259,1.2591,1.2592,0,1.2344,1.2364,1.2403,1.2425,1.2434,1.2453,1.2475,1.2494,1.2514,1.252,1.2536,1.254,1.2564,1.2555,1.2587,1.2574,1.2585,1.2592,1.2593,1.2595,1.2584,1.26,1.2633,1.2636,1.2598,1.2597,1.2597,0,1.2359,1.2397,1.2425,1.2435,1.2462,1.2475,1.2486,1.2505,1.2519,1.2538,1.2547,1.2569,1.258,1.2597,1.2607,1.2599,1.2637,1.2629,1.2642,1.2642,1.2649,1.2648,1.2683,1.2658,1.2658,1.2658,1.2658,0,1.2391,1.2414,1.2432,1.2449,1.2474,1.2485,1.251,1.2522,1.2538,1.2556,1.2562,1.2578,1.2591,1.261,1.2618,1.2642,1.2648,1.2652,1.2654,1.2651,1.265,1.2658,1.2656,1.2659,1.2659,1.2659,1.2659,0,1.2412,1.2426,1.2456,1.2478,1.2485,1.2502,1.2521,1.2537,1.2547,1.257,1.2576,1.2592,1.2614,1.2626,1.2653,1.2658,1.2685,1.2686,1.2678,1.2679,1.269,1.2689,1.273,1.2735,1.2708,1.2709,1.2709,0,1.2431,1.2448,1.2473,1.2486,1.2497,1.2518,1.2532,1.2543,1.2557,1.258,1.2592,1.2615,1.2633,1.2667,1.268,1.2701,1.2702,1.2715,1.2705,1.2701,1.27,1.2698,1.27,1.2716,1.2716,1.2717,1.2717,0,1.2461,1.2467,1.2487,1.2509,1.2525,1.2542,1.256,1.257,1.2584,1.2599,1.2621,1.2635,1.2663,1.2684,1.2705,1.2716,1.2718,1.272,1.2724,1.272,1.2714,1.2716,1.2681,1.2719,1.2719,1.2718,1.2718,1.2718,1.2481,1.2496,1.2515,1.2537,1.2551,1.2567,1.2583,1.2595,1.2614,1.2637,1.2642,1.2665,1.2683,1.2712,1.2723,1.2741,1.2738,1.2744,1.2745,1.2746,1.2746,1.2713,1.2745,1.2745,1.2745,1.2745,1.2745,0,1.251,1.2523,1.2543,1.2567,1.2583,1.2584,1.2603,1.2617,1.2637,1.2654,1.2671,1.2696,1.2716,1.2731,1.2752,1.2763,1.2764,1.2767,1.2766,1.2768,1.2748,1.2742,1.2766,1.2766,1.2766,1.2766,1.2766,1.2766,1.2528,1.2553,1.256,1.2592,1.2605,1.2627,1.2638,1.2652,1.2665,1.2692,1.2709,1.2719,1.2735,1.2756,1.2774,1.2778,1.2785,1.2788,1.2792,1.2772,1.277,1.2768,1.2762,1.279,1.279,1.281,1.281,1.281]},{"header":{"parameterUnit":"m.s-1","parameterCategory":1,"la1":30.2991,"la2":30.254,"lo1":-89.0895,"lo2":-89.0444,"dy":0.0017,"dx":0.0017,"nx":28,"ny":28,"refTime":"2023-09-06T09:00:00:Z","depth":0,"parameterNumber":3,"parameterNumberName":"V-component_of_WINDS"},"data":[0,0,0,0,0,0,0,0,0,0,0,0,0,0,0,0,0,0,0,0,0,0,0,0,0,0,0,0,0,0,0,0,0,0,0,0,0,0,0,0,0,0,0,0,0,0,0,0,0,0,0,0,0,0,0,0,0,0,2.8199,2.8199,0,2.8199,2.8199,2.8199,2.8158,2.8156,2.8155,2.8154,2.8154,2.8155,2.8156,0,0,0,0,0,0,0,0,0,0,0,0,0,2.8159,2.816,2.8199,2.8199,2.8199,2.8199,2.8199,2.8199,2.8158,2.8156,2.8155,2.8154,2.8154,2.8155,2.8156,0,0,0,0,0,0,0,0,0,0,0,0,0,2.8169,2.816,2.8199,2.8178,2.8176,2.8199,2.8199,2.8199,2.8158,2.8156,2.8155,2.8153,2.8153,2.8155,2.8157,2.8199,0,0,2.8161,2.8162,0,0,0,0,0,0,0,0,2.8169,2.8171,2.8181,2.8179,2.8177,2.8177,2.8185,2.8199,2.8158,2.8165,2.8154,2.8152,2.8163,2.8164,2.8167,2.8199,2.8199,2.8161,2.8162,2.8163,2.8163,0,0,0,0,0,0,0,2.8168,2.8171,2.8199,2.8181,2.8179,2.8168,2.8168,2.8188,2.8173,2.8164,2.8161,2.8162,2.8162,2.8166,2.8167,2.8199,2.8161,2.8163,2.8164,2.8164,2.8264,2.8265,0,0,0,0,0,0,2.8171,2.817,2.8199,2.8199,2.8169,2.817,2.817,2.8179,2.8173,2.817,2.8163,2.816,2.8164,2.8165,2.8167,2.8214,2.8163,2.8164,2.8165,2.8262,2.8264,2.8266,0,0,0,0,0,0,2.817,2.8173,2.8199,2.8184,2.8186,2.8172,2.8183,2.8179,2.8184,2.8172,2.8169,2.8171,2.8163,2.8165,2.8191,2.8214,2.8165,2.8167,2.826,2.8263,2.8265,2.8311,0,0,0,0,0,0,2.8169,2.8174,2.819,2.8185,2.8187,2.8224,2.8184,2.8181,2.8187,2.8182,2.8178,2.8176,2.8162,2.8189,2.8193,2.8215,2.8168,2.8258,2.8261,2.8264,2.8308,2.8315,2.8322,0,0,0,0,0,2.8168,2.8204,2.8191,2.8195,2.8208,2.8225,2.8227,2.821,2.8189,2.8205,2.8197,2.8176,2.8211,2.8192,2.8196,2.8219,2.8256,2.826,2.8264,2.8305,2.8314,2.8321,0,0,0,0,0,0,2.8213,2.8203,2.8189,2.8224,2.8226,2.8218,2.8238,2.822,2.8228,2.8223,2.8202,2.8201,2.823,2.8228,2.8206,2.8259,2.823,2.8235,2.8259,2.8268,2.8275,2.8274,2.8169,0,0,0,0,0,2.8227,2.8242,2.8232,2.8265,2.8266,2.8252,2.8259,2.8246,2.8246,2.8247,2.8241,2.8242,2.8253,2.8261,2.8271,2.8308,2.8305,2.8326,2.8333,2.8338,2.8342,2.8359,2.8367,2.8279,2.8279,2.8278,0,0,2.8256,2.8252,2.8263,2.8274,2.8273,2.8288,2.8253,2.8271,2.8282,2.8249,2.8273,2.8269,2.8269,2.83,2.8314,2.8299,2.8366,2.8343,2.8348,2.8348,2.8364,2.8372,2.8379,2.8281,2.8281,2.828,0,0,2.8316,2.8316,2.8342,2.8342,2.8342,2.8332,2.8338,2.8333,2.8328,2.8352,2.8327,2.834,2.836,2.836,2.8362,2.8421,2.8401,2.8425,2.8461,2.8478,2.8485,2.8491,2.8509,2.8516,2.843,2.843,2.843,0,2.8352,2.8375,2.8357,2.8376,2.838,2.8352,2.8376,2.8377,2.8381,2.8384,2.8367,2.839,2.8388,2.8418,2.8432,2.8436,2.8441,2.8425,2.8485,2.8491,2.8496,2.8514,2.8521,2.8432,2.8432,2.8432,2.8431,0,2.8418,2.8434,2.8454,2.8457,2.8464,2.8486,2.847,2.8479,2.8465,2.8457,2.848,2.8477,2.8484,2.8491,2.8478,2.8518,2.8508,2.8489,2.8459,2.8508,2.8524,2.853,2.8436,2.8435,2.8434,2.8434,0,0,2.8506,2.8498,2.8506,2.8505,2.8503,2.8514,2.8534,2.8541,2.8548,2.8551,2.8566,2.8583,2.8565,2.8568,2.8554,2.8569,2.8613,2.8548,2.8547,2.8558,2.8654,2.8667,2.8675,2.8601,2.8602,2.8603,2.8653,0,2.8563,2.8596,2.858,2.8615,2.8628,2.8601,2.8618,2.8617,2.861,2.8619,2.8611,2.8622,2.8599,2.86,2.8614,2.8605,2.8632,2.8601,2.8613,2.8613,2.8611,2.8684,2.8698,2.8746,2.866,2.8661,2.8662,0,2.8633,2.8638,2.8674,2.8666,2.8671,2.8687,2.8691,2.8701,2.8699,2.8692,2.8695,2.8678,2.8696,2.8668,2.8691,2.867,2.8674,2.8671,2.8672,2.8671,2.8639,2.8682,2.8761,2.8767,2.8672,2.8671,2.867,0,2.869,2.8706,2.8729,2.873,2.8723,2.8734,2.8731,2.8728,2.8733,2.8737,2.8739,2.8745,2.8748,2.8752,2.8736,2.8718,2.8761,2.8732,2.8754,2.8755,2.8763,2.8762,2.8841,2.877,2.877,2.8769,2.8769,0,2.8754,2.8776,2.8754,2.8768,2.8792,2.8773,2.8797,2.8791,2.8789,2.88,2.8778,2.8789,2.8769,2.8777,2.8766,2.8785,2.8787,2.8781,2.8777,2.8782,2.8782,2.8782,2.8778,2.8771,2.8771,2.877,2.877,0,2.8821,2.8808,2.883,2.8821,2.8819,2.8837,2.8829,2.8841,2.8832,2.8846,2.8849,2.8834,2.8843,2.8829,2.8837,2.8828,2.8855,2.8847,2.8855,2.8852,2.8874,2.8871,2.8954,2.8962,2.8888,2.8889,2.8889,0,2.8861,2.8878,2.887,2.8876,2.8874,2.8885,2.8889,2.8871,2.8876,2.8874,2.8886,2.8893,2.8897,2.8913,2.8903,2.8908,2.8899,2.8927,2.8899,2.8903,2.8896,2.8894,2.8895,2.8932,2.8933,2.8934,2.8935,0,2.8933,2.8925,2.8932,2.8936,2.8942,2.8944,2.8945,2.8951,2.8932,2.8939,2.8947,2.8951,2.8958,2.8965,2.8967,2.8964,2.8945,2.8944,2.8949,2.8952,2.8955,2.8951,2.8868,2.8942,2.8941,2.894,2.894,2.894,2.8986,2.8998,2.8994,2.9002,2.9001,2.9002,2.9012,2.9003,2.901,2.9014,2.9003,2.9014,2.9011,2.9012,2.9011,2.9018,2.9005,2.9013,2.9015,2.9017,2.9019,2.8956,2.9019,2.9019,2.9019,2.9018,2.9018,0,2.9054,2.905,2.9058,2.9059,2.9065,2.9047,2.9047,2.9053,2.9063,2.9061,2.9065,2.9074,2.9081,2.9071,2.9075,2.9083,2.9074,2.9084,2.9082,2.9081,2.9031,2.9025,2.9091,2.9091,2.9091,2.9091,2.9091,2.9091,2.909,2.9109,2.9101,2.9119,2.9114,2.9124,2.9125,2.9125,2.9123,2.9134,2.9139,2.9133,2.9127,2.913,2.9135,2.9132,2.9133,2.9146,2.9139,2.9092,2.9085,2.9078,2.9072,2.9147,2.9147,2.9188,2.9189,2.9189]}]]